[[{"header":{"parameterUnit":"m.s-1","parameterCategory":1,"la1":30.2991,"la2":30.254,"lo1":-89.0895,"lo2":-89.0444,"dy":0.0017,"dx":0.0017,"nx":28,"ny":28,"refTime":"2025-04-20T03:00:00:Z","depth":0,"parameterNumber":2,"parameterNumberName":"U-component_of_WINDS"},"data":[0,0,0,0,0,0,0,0,0,0,0,0,0,0,0,0,0,0,0,0,0,0,0,0,0,0,0,0,0,0,0,0,0,0,0,0,0,0,0,0,0,0,0,0,0,0,0,0,0,0,0,0,0,0,0,0,0,0,-2.1369,-2.1369,0,-2.1379,-2.1379,-2.1379,-2.1357,-2.1357,-2.1356,-2.1355,-2.1364,-2.1365,-2.1366,0,0,0,0,0,0,0,0,0,0,0,0,0,-2.133,-2.1331,-2.1369,-2.1369,-2.1369,-2.1379,-2.1379,-2.1379,-2.1358,-2.1357,-2.1356,-2.1355,-2.1364,-2.1365,-2.1366,0,0,0,0,0,0,0,0,0,0,0,0,0,-2.1344,-2.1331,-2.1369,-2.136,-2.1359,-2.1379,-2.1379,-2.1379,-2.1358,-2.1357,-2.1356,-2.1355,-2.1364,-2.1365,-2.1366,-2.1395,0,0,-2.137,-2.1371,0,0,0,0,0,0,0,0,-2.1343,-2.1346,-2.1361,-2.136,-2.136,-2.1366,-2.1369,-2.1385,-2.1358,-2.1358,-2.1355,-2.1354,-2.1366,-2.1367,-2.1371,-2.1396,-2.1396,-2.137,-2.1371,-2.1372,-2.1372,0,0,0,0,0,0,0,-2.1342,-2.1345,-2.1373,-2.1361,-2.136,-2.1355,-2.1355,-2.1371,-2.1367,-2.1358,-2.1356,-2.1358,-2.1365,-2.137,-2.1371,-2.1396,-2.137,-2.1372,-2.1372,-2.1373,-2.1445,-2.1446,0,0,0,0,0,0,-2.1343,-2.1344,-2.1372,-2.1373,-2.1349,-2.1356,-2.1357,-2.1365,-2.1367,-2.1367,-2.1359,-2.1357,-2.1368,-2.1369,-2.1371,-2.1405,-2.1372,-2.1373,-2.1374,-2.1444,-2.1445,-2.1447,0,0,0,0,0,0,-2.1342,-2.1346,-2.1372,-2.1358,-2.1361,-2.1358,-2.1367,-2.1366,-2.137,-2.1368,-2.1367,-2.1364,-2.1367,-2.1369,-2.1389,-2.1405,-2.1374,-2.1375,-2.1443,-2.1444,-2.1446,-2.1472,0,0,0,0,0,0,-2.1341,-2.1345,-2.1357,-2.1359,-2.1362,-2.1391,-2.1368,-2.1367,-2.1373,-2.137,-2.1373,-2.1372,-2.1366,-2.1388,-2.1391,-2.1406,-2.1376,-2.1441,-2.1443,-2.1445,-2.147,-2.1475,-2.1479,0,0,0,0,0,-2.134,-2.1363,-2.1357,-2.1361,-2.1376,-2.1392,-2.1393,-2.1386,-2.1374,-2.1385,-2.1384,-2.1372,-2.1403,-2.139,-2.1393,-2.1409,-2.144,-2.1443,-2.1445,-2.1468,-2.1474,-2.1478,0,0,0,0,0,0,-2.1362,-2.1363,-2.1357,-2.1382,-2.1387,-2.1388,-2.1401,-2.1393,-2.1401,-2.1398,-2.1389,-2.139,-2.1412,-2.1413,-2.1398,-2.1437,-2.1419,-2.1423,-2.1435,-2.1441,-2.1445,-2.1444,-2.1377,0,0,0,0,0,-2.137,-2.1383,-2.1383,-2.1406,-2.1409,-2.1405,-2.1411,-2.1406,-2.141,-2.1412,-2.1412,-2.1417,-2.1427,-2.1434,-2.1444,-2.1471,-2.147,-2.1483,-2.1487,-2.1491,-2.1493,-2.1507,-2.1512,-2.1455,-2.1455,-2.1455,0,0,-2.1387,-2.1389,-2.1397,-2.141,-2.1413,-2.1426,-2.1406,-2.1421,-2.143,-2.1414,-2.1433,-2.1433,-2.1438,-2.1461,-2.1472,-2.1463,-2.151,-2.1494,-2.1497,-2.1498,-2.151,-2.1516,-2.152,-2.1457,-2.1456,-2.1456,0,0,-2.1423,-2.1426,-2.1445,-2.1449,-2.1454,-2.1452,-2.1456,-2.1459,-2.1459,-2.1478,-2.1466,-2.1477,-2.1495,-2.1499,-2.1503,-2.1542,-2.1531,-2.1545,-2.1567,-2.1581,-2.1585,-2.1589,-2.1602,-2.1607,-2.1548,-2.1548,-2.1548,0,-2.1442,-2.1462,-2.1455,-2.1471,-2.1477,-2.1463,-2.1482,-2.1486,-2.1494,-2.1498,-2.1488,-2.1511,-2.1513,-2.1537,-2.1547,-2.1551,-2.1555,-2.1544,-2.1585,-2.1589,-2.1593,-2.1605,-2.161,-2.155,-2.155,-2.1549,-2.1549,0,-2.1485,-2.1499,-2.1513,-2.1522,-2.1529,-2.1546,-2.1542,-2.155,-2.1545,-2.1543,-2.1562,-2.1565,-2.1575,-2.158,-2.1574,-2.1603,-2.1597,-2.1587,-2.1568,-2.16,-2.1611,-2.1616,-2.1552,-2.1552,-2.1551,-2.1551,0,0,-2.1534,-2.154,-2.1545,-2.1549,-2.1554,-2.1564,-2.1581,-2.1591,-2.1598,-2.1604,-2.1617,-2.1634,-2.1624,-2.1629,-2.1624,-2.1636,-2.1665,-2.1623,-2.1623,-2.163,-2.1696,-2.1703,-2.1709,-2.1659,-2.166,-2.1661,-2.1695,0,-2.1569,-2.1597,-2.1592,-2.162,-2.1632,-2.162,-2.1634,-2.1639,-2.1639,-2.1649,-2.1648,-2.1659,-2.1646,-2.1649,-2.166,-2.1659,-2.1678,-2.1657,-2.167,-2.1671,-2.1668,-2.1715,-2.1722,-2.1755,-2.17,-2.1701,-2.1701,0,-2.1613,-2.1622,-2.165,-2.1654,-2.1659,-2.1672,-2.1681,-2.1691,-2.1696,-2.1695,-2.1701,-2.1693,-2.1709,-2.1692,-2.1714,-2.1699,-2.1705,-2.1705,-2.1707,-2.1706,-2.1687,-2.1715,-2.1765,-2.177,-2.1708,-2.1708,-2.1707,0,-2.1645,-2.1663,-2.1683,-2.1687,-2.1692,-2.1701,-2.1703,-2.1708,-2.1714,-2.1722,-2.1726,-2.1736,-2.1741,-2.1748,-2.1743,-2.1732,-2.1766,-2.1748,-2.1764,-2.1764,-2.177,-2.177,-2.1821,-2.1776,-2.1776,-2.1776,-2.1776,0,-2.1683,-2.1701,-2.1697,-2.1709,-2.1728,-2.1723,-2.1742,-2.1743,-2.1747,-2.1759,-2.175,-2.1761,-2.1755,-2.1765,-2.1762,-2.178,-2.1782,-2.1781,-2.178,-2.1781,-2.1781,-2.1783,-2.178,-2.1778,-2.1777,-2.1777,-2.1777,0,-2.1721,-2.1719,-2.174,-2.1743,-2.1744,-2.1759,-2.1761,-2.1772,-2.1771,-2.1786,-2.1789,-2.1788,-2.18,-2.1796,-2.1809,-2.1807,-2.1829,-2.1826,-2.1827,-2.1826,-2.1842,-2.184,-2.1895,-2.1902,-2.1854,-2.1855,-2.1855,0,-2.1745,-2.1758,-2.1764,-2.1771,-2.1774,-2.1786,-2.1793,-2.1788,-2.1796,-2.1803,-2.1813,-2.1824,-2.1833,-2.1852,-2.1852,-2.1862,-2.1858,-2.1876,-2.1859,-2.186,-2.1856,-2.1855,-2.1856,-2.1879,-2.188,-2.188,-2.1881,0,-2.1787,-2.1786,-2.1796,-2.1807,-2.1815,-2.1823,-2.1829,-2.1836,-2.1832,-2.1841,-2.1853,-2.186,-2.1873,-2.1884,-2.1893,-2.1895,-2.1887,-2.1887,-2.1891,-2.1891,-2.1891,-2.189,-2.1835,-2.1885,-2.1884,-2.1884,-2.1884,-2.1884,-2.1818,-2.1829,-2.1835,-2.1847,-2.1852,-2.1858,-2.1869,-2.1869,-2.188,-2.189,-2.1887,-2.1901,-2.1906,-2.1918,-2.1921,-2.1932,-2.1925,-2.1931,-2.1932,-2.1933,-2.1935,-2.1891,-2.1934,-2.1934,-2.1933,-2.1933,-2.1933,0,-2.1859,-2.1862,-2.1873,-2.1883,-2.1893,-2.1885,-2.1893,-2.1901,-2.1913,-2.1919,-2.1928,-2.1942,-2.1953,-2.1954,-2.1964,-2.1972,-2.1969,-2.1975,-2.1974,-2.1974,-2.1941,-2.1936,-2.1978,-2.1978,-2.1978,-2.1978,-2.1978,-2.1978,-2.1881,-2.19,-2.1899,-2.192,-2.1923,-2.1937,-2.1942,-2.1948,-2.1952,-2.1969,-2.1978,-2.1979,-2.1983,-2.1993,-2.2003,-2.2003,-2.2006,-2.2014,-2.2012,-2.1981,-2.1976,-2.1972,-2.1967,-2.2015,-2.2015,-2.2044,-2.2044,-2.2045]},{"header":{"parameterUnit":"m.s-1","parameterCategory":1,"la1":30.2991,"la2":30.254,"lo1":-89.0895,"lo2":-89.0444,"dy":0.0017,"dx":0.0017,"nx":28,"ny":28,"refTime":"2025-04-20T03:00:00:Z","depth":0,"parameterNumber":3,"parameterNumberName":"V-component_of_WINDS"},"data":[0,0,0,0,0,0,0,0,0,0,0,0,0,0,0,0,0,0,0,0,0,0,0,0,0,0,0,0,0,0,0,0,0,0,0,0,0,0,0,0,0,0,0,0,0,0,0,0,0,0,0,0,0,0,0,0,0,0,2.2649,2.265,0,2.2727,2.2728,2.2729,2.2768,2.2769,2.2769,2.2769,2.2843,2.2845,2.2847,0,0,0,0,0,0,0,0,0,0,0,0,0,2.2529,2.2531,2.2649,2.265,2.2651,2.2727,2.2728,2.2729,2.2768,2.2769,2.2769,2.2769,2.2842,2.2844,2.2847,0,0,0,0,0,0,0,0,0,0,0,0,0,2.2591,2.2532,2.2648,2.268,2.2683,2.2727,2.2728,2.2729,2.2768,2.2769,2.2769,2.2769,2.2841,2.2844,2.2847,2.2863,0,0,2.2856,2.2857,0,0,0,0,0,0,0,0,2.2588,2.2596,2.2674,2.2678,2.2682,2.2738,2.2713,2.2774,2.2768,2.2736,2.2769,2.2769,2.2808,2.2813,2.2828,2.2867,2.287,2.2856,2.2858,2.2859,2.286,0,0,0,0,0,0,0,2.2583,2.2592,2.2679,2.2675,2.268,2.2688,2.2697,2.2725,2.277,2.2739,2.2742,2.2751,2.281,2.2825,2.283,2.2871,2.2856,2.2859,2.286,2.2862,2.2929,2.2929,0,0,0,0,0,0,2.2575,2.2589,2.2677,2.2682,2.2634,2.269,2.27,2.272,2.277,2.2778,2.2751,2.2752,2.282,2.2826,2.2832,2.2856,2.2859,2.2862,2.2864,2.2929,2.2929,2.2929,0,0,0,0,0,0,2.2572,2.2582,2.2674,2.2636,2.2649,2.2692,2.2714,2.2721,2.2737,2.2779,2.2787,2.2758,2.282,2.2828,2.2856,2.2859,2.2863,2.2866,2.2929,2.2929,2.2929,2.2902,0,0,0,0,0,0,2.2568,2.2581,2.2589,2.2636,2.265,2.2698,2.2714,2.2723,2.2742,2.2745,2.2788,2.2795,2.2821,2.2852,2.2859,2.2863,2.2868,2.2929,2.2929,2.2929,2.2903,2.2901,2.29,0,0,0,0,0,2.2564,2.2576,2.2589,2.2599,2.2661,2.2698,2.2706,2.2736,2.2742,2.275,2.2777,2.2794,2.2857,2.2854,2.2863,2.2868,2.2929,2.2929,2.2929,2.2904,2.2902,2.29,0,0,0,0,0,0,2.2525,2.2583,2.2598,2.2626,2.2657,2.2704,2.2715,2.2733,2.2761,2.2763,2.2798,2.2807,2.2832,2.2852,2.2848,2.2887,2.2895,2.2897,2.2872,2.2871,2.2869,2.2864,2.287,0,0,0,0,0,2.2521,2.2547,2.2595,2.2616,2.2631,2.267,2.2687,2.2708,2.2741,2.2754,2.2783,2.2813,2.284,2.2856,2.2883,2.2906,2.2916,2.2914,2.2912,2.2911,2.2912,2.2926,2.2926,2.293,2.293,2.293,0,0,2.251,2.2545,2.2559,2.2609,2.2636,2.2661,2.2681,2.2706,2.2725,2.2757,2.2786,2.2809,2.2844,2.287,2.2883,2.2888,2.2913,2.2911,2.2909,2.2911,2.2926,2.2926,2.2926,2.293,2.293,2.293,0,0,2.2505,2.2534,2.2555,2.2581,2.2622,2.2649,2.2654,2.2699,2.2716,2.2746,2.2771,2.2793,2.2838,2.2863,2.2881,2.2887,2.2903,2.2894,2.2886,2.29,2.2899,2.2899,2.2902,2.2902,2.2895,2.2895,2.2895,0,2.2486,2.2527,2.2562,2.2588,2.2609,2.2641,2.2662,2.2686,2.2732,2.2745,2.2751,2.281,2.2835,2.2868,2.287,2.2883,2.289,2.2889,2.2897,2.2897,2.2897,2.29,2.2901,2.2894,2.2894,2.2894,2.2894,0,2.2503,2.2531,2.2542,2.259,2.2612,2.2635,2.2672,2.269,2.271,2.2735,2.2766,2.2798,2.2833,2.2842,2.286,2.2877,2.288,2.289,2.2899,2.2895,2.2898,2.29,2.2892,2.2892,2.2893,2.2893,0,0,2.2474,2.2542,2.2545,2.2568,2.2616,2.2638,2.2662,2.2698,2.2713,2.2744,2.2765,2.2804,2.2815,2.2836,2.2857,2.2869,2.2872,2.2879,2.288,2.2877,2.2894,2.2885,2.2886,2.2884,2.2884,2.2884,2.2891,0,2.2475,2.2523,2.2555,2.2589,2.2616,2.2647,2.2669,2.27,2.2724,2.2749,2.2775,2.2803,2.2815,2.2828,2.2841,2.2869,2.2876,2.2869,2.2902,2.2903,2.2893,2.2888,2.2879,2.2884,2.2892,2.2893,2.2893,0,2.2483,2.2516,2.2553,2.26,2.2613,2.2631,2.2668,2.2692,2.2727,2.2745,2.2769,2.2791,2.2817,2.2824,2.286,2.2854,2.287,2.2886,2.2887,2.2891,2.2898,2.2892,2.2886,2.2887,2.2895,2.2895,2.2894,0,2.2459,2.2513,2.2542,2.256,2.2616,2.2628,2.2651,2.2688,2.2708,2.2739,2.2752,2.2785,2.2803,2.2827,2.2858,2.286,2.2891,2.29,2.2905,2.2904,2.291,2.2909,2.2906,2.2919,2.2919,2.2919,2.2919,0,2.2457,2.2479,2.2533,2.2551,2.2576,2.2613,2.2636,2.2662,2.2694,2.2717,2.2745,2.2766,2.2805,2.283,2.2853,2.288,2.2887,2.2901,2.2907,2.2899,2.2897,2.2909,2.291,2.292,2.2919,2.2919,2.2919,0,2.2434,2.2472,2.2506,2.2557,2.257,2.2586,2.2629,2.2647,2.2674,2.2702,2.2711,2.2752,2.2783,2.2817,2.2858,2.2874,2.2899,2.2907,2.2888,2.2891,2.2895,2.2894,2.29,2.2902,2.2913,2.2913,2.2913,0,2.2431,2.2449,2.2502,2.2521,2.2544,2.2573,2.2595,2.2632,2.2653,2.2696,2.2709,2.2743,2.2772,2.282,2.2852,2.2884,2.2894,2.2894,2.2898,2.289,2.2894,2.2893,2.2895,2.2892,2.2891,2.2891,2.2891,0,2.2421,2.2439,2.2471,2.2509,2.2534,2.2565,2.2597,2.261,2.2653,2.2675,2.2709,2.2731,2.2775,2.2808,2.2844,2.2866,2.2886,2.2889,2.2892,2.2884,2.2872,2.2879,2.2884,2.2889,2.2889,2.2889,2.2889,2.2889,2.2409,2.2427,2.2468,2.2502,2.253,2.256,2.258,2.2611,2.264,2.268,2.27,2.2733,2.2769,2.282,2.2842,2.2868,2.2873,2.2877,2.2879,2.2879,2.2877,2.2868,2.2874,2.2874,2.2874,2.2875,2.2875,0,2.2401,2.243,2.2461,2.2506,2.2533,2.2551,2.2588,2.2608,2.2638,2.2671,2.27,2.2738,2.2771,2.2807,2.2841,2.2855,2.2864,2.2862,2.2862,2.2867,2.287,2.2864,2.2854,2.2854,2.2854,2.2854,2.2854,2.2854,2.24,2.2432,2.2455,2.2501,2.2529,2.2564,2.2583,2.261,2.2637,2.268,2.2708,2.2732,2.2766,2.2804,2.2834,2.2844,2.2855,2.2851,2.2863,2.2865,2.2866,2.2868,2.2863,2.2853,2.2853,2.2858,2.2858,2.2858]}]]